Location: Newark
(9.1167°S, 159.8667°E)
Time: 05:00:18
(UTC+00:00)

Envisat - Pass Details

Date: 25 September 2019
Orbit: 764 x 766 km, 98.1° (Epoch: 22 October)

Event Time Altitude Azimuth Distance (km) Brightness Sun altitude
Rises 18:39:45 0° 54° (NE) 3,216 7.2 -7.9°
Reaches altitude 10° 18:43:44 10° 86° (E) 2,298 7.3 -6.9°
Maximum altitude 18:45:25 12° 106° (ESE) 2,189 6.9 -6.5°
Drops below altitude 10° 18:47:06 10° 125° (SE) 2,303 6.5 -6.0°
Sets 18:51:05 0° 157° (SSE) 3,236 6.6 -5.1°
